Location: Dompnac
(44.5644°N, 4.1026°E)
Time: 11:33:59
(UTC+00:00)

Cosmos 1891 Rocket - Pass Details

Date: 24 January 2021
Orbit: 934 x 1018 km, 82.9° (Epoch: 24 February)

Event Time Altitude Azimuth Distance (km) Brightness Sun altitude
Rises 06:17:02 0° 239° (WSW) 3,646 7.1 -9.6°
Reaches altitude 10° 06:20:43 10° 261° (W) 2,688 6.3 -9.0°
Maximum altitude 06:24:15 16° 296° (WNW) 2,293 5.8 -8.4°
Drops below altitude 10° 06:27:46 10° 332° (NNW) 2,670 6.4 -7.8°
Sets 06:31:26 0° 354° (N) 3,610 7.2 -7.2°
